Regional Weather Roundup
Issued by NWS Sioux Falls, SD

Home | Current Version | Previous Version | Graphics & Text | Print | Product List | Glossary On
Versions: 1 2 3 4 5 6 7 8 9 10 11 12 13 14 15 16 17 18 19 20 21 22 23 24 25 26 27 28 29 30 31 32 33 34 35 36 37 38 39 40 41 42 43 44 45 46 47 48 49 50
000
ASUS43 KFSD 042110
RWRFSD

WEATHER ROUNDUP FOR SE SOUTH DAKOTA/SW MINNESOTA/NW IOWA
NATIONAL WEATHER SERVICE SIOUX FALLS SD
400 PM CDT WED MAY 04 2016

NOTE: "FAIR" INDICATES FEW OR NO CLOUDS BELOW 12,000 FEET WITH NO
SIGNIFICANT WEATHER AND OR OBSTRUCTIONS TO VISIBILITY.


SDZ038>040-050-052>070-042200-
SOUTHEAST SOUTH DAKOTA

CITY           SKY/WX    TMP DP  RH WIND       PRES   REMARKS
BROOKINGS      SUNNY     67  34  29 NW13G20   30.01F
CHAMBERLAIN    SUNNY     71  38  30 W5        30.08S
HURON          SUNNY     70  34  26 N8G20     30.04F
MADISON        FAIR      66  32  28 NW15G21   30.03F
MITCHELL       SUNNY     69  36  29 NW13G18   30.06F
SIOUX FALLS    MOSUNNY   67  36  31 N14G24    30.02F
WINNER         FAIR      71  37  28 NW5       30.09F
YANKTON        SUNNY     66  36  32 N10       30.05F
$$

MNZ071-072-080-081-089-090-097-098-042200-
SOUTHWEST MINNESOTA

CITY           SKY/WX    TMP DP  RH WIND       PRES   REMARKS
FAIRMONT       SUNNY     66  34  30 NW20G25   29.96F
JACKSON        SUNNY     64  28  25 N18G26    29.99F
LUVERNE        SUNNY     68  30  24 NW16      30.01F
MARSHALL       SUNNY     67  29  24 N20G30    29.99F
MONTEVIDEO     SUNNY     70  30  23 N17G25    30.00F
PIPESTONE      SUNNY     68  23  18 N13G23    30.01F
REDWOOD FALLS  SUNNY     69  28  21 N9G26     29.97F
TRACY          SUNNY     68  33  27 NW16      30.00F
WINDOM         SUNNY     66  30  26 NW21G30   29.98F
WORTHINGTON    SUNNY     64  35  34 NW14G26   30.01F
$$

IAZ001>003-012>014-020>022-031-032-NEZ013-014-SDZ071-042200-
NORTHWEST IOWA

CITY           SKY/WX    TMP DP  RH WIND       PRES   REMARKS
CHEROKEE       SUNNY     66  37  34 NW17      30.00F
DENISON        SUNNY     64  36  34 N20       29.99F
ESTHERVILLE    SUNNY     65  36  34 N17       29.98F
LE MARS        SUNNY     66  37  34 NW14G20   30.03F
ORANGE CITY    SUNNY     66  36  32 N9G17     30.02F
SHELDON        SUNNY     68  34  28 N17G28    29.99F
SIOUX CITY     SUNNY     67  43  41 NW15      30.03F
SPENCER        SUNNY     66  34  30 N20G28    30.00F
STORM LAKE       N/A     66  36  32 N15G28    30.00F
$$

ABBREVIATIONS USED IN REMARKS
   TC - TEMPERATURE IN CELSIUS
  WCI - WIND CHILL INDEX
   HX - HEAT INDEX
  VSB - VISIBILITY





USA.gov is the U.S. government's official web portal to all federal, state and local government web resources and services.